Marathon, FL

6:14 AM EST on November 21, 2017 (GMT -0500)
Florida Keys Marathon

Weather History for KMTH - October, 2011

Change the Weather History Date:

Friday, October 28, 2011

  Actual Average Record
Temperature  
Mean Temperature 82 °F 79 °F  
Max Temperature 88 °F 83 °F 89 °F (2002)
Min Temperature 76 °F 74 °F 61 °F (2008)
Degree Days  
Heating Degree Days 0 0  
Month to date heating degree days 0 0  
Since 1 July heating degree days 0 0  
Cooling Degree Days 17 13  
Month to date cooling degree days 394 446  
Year to date cooling degree days 4734 4400  
Growing Degree Days 30 (Base 50)    
Moisture  
Dew Point 77 °F    
Average Humidity 83    
Maximum Humidity 91    
Minimum Humidity 75    
Precipitation  
Precipitation 0.36 in 0.15 in 0.78 in (2017)
Month to date precipitation 18.20 4.39  
Year to date precipitation 33.37 40.94  
Snow  
Snow 0.00 in - - ()
Month to date snowfall 0.0  
Since 1 July snowfall 0.0  
Since 1 September snowfall 0.0  
Snow Depth 0.00 in    
Sea Level Pressure  
Sea Level Pressure 29.86 in    
Wind  
Wind Speed 6 mph (SE)    
Max Wind Speed 14 mph    
Max Gust Speed 23 mph    
Visibility 9 miles    
Events Rain , Thunderstorm    
T = Trace of Precipitation, MM = Missing Value Source: NWS Daily Summary

Daily Weather History Graph

Daily Weather History Graph

Search for Another Location

Airport or City:

Trip Planner

Search our weather history database for the weather conditions in past years. The results will help you decide how hot, cold, wet, or windy it might be!

Date:

Astronomy

Oct. 28, 2011 Rise Set
Actual Time 7:28 AM EDT 6:46 PM EDT
Civil Twilight 7:05 AM EDT 7:10 PM EDT
Nautical Twilight 6:38 AM EDT 7:37 PM EDT
Astronomical Twilight 6:11 AM EDT 8:03 PM EDT
Moon 9:25 AM EDT (10/28) 8:26 PM EDT (10/28)
Length of Visible Light 12h 04m
Length of Day
11h 18m
Waxing Crescent, 5% of the Moon is Illuminated
Oct 28
Waxing Crescent
Nov 2
First Quarter
Nov 10
Full
Nov 18
Last Quarter
Nov 25
New

Hourly Weather History & Observations

Time (EDT) Temp. Heat Index Dew Point Humidity Pressure Visibility Wind Dir Wind Speed Gust Speed Precip Events Conditions
12:53 AM 79.0 °F - 75.9 °F 90% 29.91 in 10.0 mi East 5.8 mph - N/A   Clear
1:53 AM 79.0 °F - 75.0 °F 88% 29.90 in 10.0 mi East 5.8 mph - N/A   Clear
2:53 AM 79.0 °F - 75.0 °F 88% 29.89 in 10.0 mi East 5.8 mph - N/A   Clear
4:53 AM 79.0 °F - 75.9 °F 90% 29.88 in 10.0 mi ENE 3.5 mph - N/A   Clear
6:53 AM 79.0 °F - 75.9 °F 90% 29.88 in 10.0 mi East 4.6 mph - N/A   Clear
7:53 AM 79.0 °F - 75.9 °F 90% 29.89 in 10.0 mi East 4.6 mph - N/A   Partly Cloudy
8:53 AM 81.0 °F 87.9 °F 77.0 °F 88% 29.91 in 10.0 mi East 4.6 mph - N/A   Partly Cloudy
9:53 AM 81.0 °F 87.9 °F 77.0 °F 88% 29.91 in 10.0 mi East 4.6 mph - 0.00 in   Scattered Clouds
10:53 AM 82.0 °F 91.0 °F 78.1 °F 88% 29.91 in 10.0 mi ESE 6.9 mph - N/A   Clear
11:53 AM 84.0 °F 94.8 °F 78.1 °F 82% 29.91 in 10.0 mi ESE 8.1 mph - N/A   Clear
1:53 PM 86.0 °F 98.3 °F 78.1 °F 77% 29.87 in 10.0 mi Variable 4.6 mph - N/A   Clear
2:53 PM 84.9 °F 96.6 °F 78.1 °F 80% 29.83 in 10.0 mi ESE 5.8 mph - N/A   Clear
3:53 PM 84.9 °F 96.6 °F 78.1 °F 80% 29.81 in 10.0 mi ESE 5.8 mph - N/A   Clear
4:53 PM 84.0 °F 96.0 °F 79.0 °F 85% 29.82 in 10.0 mi ESE 6.9 mph - N/A   Scattered Clouds
5:53 PM 82.9 °F 93.8 °F 79.0 °F 88% 29.83 in 10.0 mi ESE 4.6 mph - N/A   Mostly Cloudy
6:53 PM 82.0 °F 91.0 °F 78.1 °F 88% 29.83 in 10.0 mi SE 6.9 mph - N/A   Mostly Cloudy
7:18 PM 82.4 °F 92.4 °F 78.8 °F 89% 29.83 in 10.0 mi ESE 5.8 mph - N/A Thunderstorm Thunderstorm
7:25 PM 82.4 °F 92.4 °F 78.8 °F 89% 29.82 in 9.0 mi ESE 6.9 mph - 0.00 in Rain , Thunderstorm Light Thunderstorms and Rain
7:32 PM 80.6 °F 88.1 °F 78.8 °F 94% 29.82 in 5.0 mi SE 5.8 mph - 0.02 in Rain Rain
7:39 PM 80.6 °F 88.1 °F 78.8 °F 94% 29.83 in 2.5 mi SSE 6.9 mph - 0.06 in Rain , Thunderstorm Heavy Rain
7:53 PM 77.0 °F - 75.0 °F 94% 29.84 in 1.2 mi SE 6.9 mph 23.0 mph 0.28 in Rain , Thunderstorm Heavy Thunderstorms and Rain
8:02 PM 75.2 °F - 73.4 °F 94% 29.85 in 2.5 mi South 4.6 mph - 0.03 in Rain , Thunderstorm Thunderstorms and Rain
8:09 PM 77.0 °F - 75.2 °F 94% 29.85 in 4.0 mi SSW 6.9 mph - 0.04 in Rain , Thunderstorm Thunderstorms and Rain
8:28 PM 78.8 °F - 77.0 °F 94% 29.86 in 6.0 mi South 8.1 mph - 0.05 in Rain , Thunderstorm Light Rain
8:37 PM 78.8 °F - 75.2 °F 89% 29.87 in 10.0 mi South 6.9 mph 16.1 mph 0.05 in Rain , Thunderstorm Light Rain
8:53 PM 79.0 °F - 77.0 °F 94% 29.87 in 10.0 mi South 5.8 mph - 0.05 in Thunderstorm Overcast
9:05 PM 78.8 °F - 77.0 °F 94% 29.88 in 10.0 mi South 6.9 mph - N/A   Overcast
9:53 PM 79.0 °F - 77.0 °F 94% 29.88 in 10.0 mi South 6.9 mph - 0.02 in   Scattered Clouds
10:53 PM 78.1 °F - 75.0 °F 90% 29.87 in 10.0 mi South 8.1 mph 16.1 mph 0.01 in   Scattered Clouds
11:53 PM 79.0 °F - 75.0 °F 88% 29.85 in 10.0 mi South 8.1 mph 16.1 mph N/A   Scattered Clouds